Regional Weather Roundup
Issued by NWS

Home | Current Version | Previous Version | Text Only | Print | Product List | Glossary Off
Versions: 1 2 3 4 5 6 7 8 9 10 11 12 13 14 15 16 17 18 19 20 21 22 23 24 25 26 27 28 29 30 31 32 33 34 35 36 37 38 39 40 41 42 43 44 45 46 47 48 49 50

000
ASUS43 KMPX 312301
RWRMN
WEATHER ROUNDUP FOR MINNESOTA
NATIONAL WEATHER SERVICE TWIN CITIES/CHANHASSEN MN
600 PM CDT THU JUL 31 2014


NOTE: "FAIR" INDICATES FEW OR NO CLOUDS BELOW 12,000 FEET WITH NO
SIGNIFICANT WEATHER AND/OR OBSTRUCTIONS TO VISIBILITY. N/A MEANS
CURRENT SKY AND/OR WEATHER CONDITIONS ARE NOT AVAILABLE.

MNZ060>063-068>070-010000-
   Twin Cities Metro

CITY           SKY/WX    TMP DP  RH WIND       PRES   REMARKS
TWIN CITIES    MOSUNNY   82  53  36 W7        29.99F
ST PAUL        SUNNY     81  53  37 W10       29.99S
CRYSTAL        SUNNY     82  53  36 W9        29.98F
BLAINE         SUNNY     82  55  39 W12       29.99F
LAKEVILLE      SUNNY     79  57  47 W7        30.01S
EDEN PRAIRIE   SUNNY     82  55  39 NW7       29.99F
SOUTH ST PAUL  SUNNY     82  51  34 W7        29.99S
LAKE ELMO      FAIR      79  57  47 W7        30.01R
$$
MNZ001>005-007-008-013>017-022>024-027-028-010000-
   Northwest Minnesota

CITY           SKY/WX    TMP DP  RH WIND       PRES   REMARKS
BEMIDJI        SUNNY     77  57  49 N8        30.01S
HALLOCK        SUNNY     81  61  50 N7        30.00S
ROSEAU           N/A     79  61  53 W6        30.00S
WARROAD        SUNNY     79  57  47 NW8       30.00S
THIEF RVR FALL SUNNY     79  59  50 NW10      30.01F
CROOKSTON      SUNNY     81  63  54 NW8       30.01S
FOSSTON        SUNNY     79  57  47 W5        30.03S
DETROIT LAKES  SUNNY     79  55  44 NW7       30.04F
MOORHEAD       SUNNY     81  59  47 NE5       30.02S
PARK RAPIDS    SUNNY     79  56  45 NW14      30.01F
$$
MNZ006-009>011-018-025>026-010000-
   North Central Minnesota

CITY           SKY/WX    TMP DP  RH WIND       PRES   REMARKS
BAUDETTE       SUNNY     78  55  44 N6        30.01S
FLAG ISLAND    SUNNY     79  54  41 N3        29.98S
INTL FALLS     SUNNY     76  55  48 NW5       29.99S
WASKISH        SUNNY     79  55  44 CALM      30.01S
BIG FORK       MOSUNNY   77  55  47 NW2       30.00S
LONGVILLE      SUNNY     77  63  61 N3        30.00S
GRAND RAPIDS   MOSUNNY   77  57  50 NW10      30.00S
CRANE LAKE     SUNNY     73  52  46 NW3       30.00S
ORR            SUNNY     75  52  43 CALM      29.97S
COOK           SUNNY     75  54  46 N3        29.99F
$$
MNZ012-019>021-037-010000-
   Northeast Minnesota

CITY           SKY/WX    TMP DP  RH WIND       PRES   REMARKS
DULUTH         SUNNY     79  53  40 NW8       29.97F
ELY            SUNNY     73  48  40 NW5       29.99R
HIBBING        MOSUNNY   78  54  43 N9        29.99S
EVELETH        MOSUNNY   77  54  44 W10       30.00S
DULUTH HARBOR  SUNNY     81  55  41 NW5       29.95S
TWO HARBORS    SUNNY     75  54  46 NW3       29.94F
SILVER BAY     SUNNY     75  57  53 CALM      29.94S
GRAND MARAIS     N/A     57  50  77 CALM      29.93S
G MARAIS ARPRT SUNNY     70  45  40 NW5       29.99S
$$
MNZ029>031-032-039>041-046>048-054>057-064-010000-
   West Central Minnesota

CITY           SKY/WX    TMP DP  RH WIND       PRES   REMARKS
FERGUS FALLS   PTSUNNY   79  57  47 N8        30.01S
WHEATON        SUNNY     79  57  47 CALM      30.04F
MORRIS         SUNNY     81  57  44 NW5       30.02F
ALEXANDRIA     SUNNY     80  56  43 NW10      30.04F
ELBOW LAKE     FAIR      78  60  54 NW6       30.02F
WADENA         SUNNY     79  59  50 W7        30.02S
GLENWOOD       SUNNY     79  55  44 NW8       30.04F
APPLETON       SUNNY     82  52  34 NW6       30.02F
BENSON         SUNNY     81  55  41 N6        30.03S
ORTONVILLE     MOSUNNY   81  54  39 N7        30.03F
MADISON        SUNNY     81  55  41 N3        30.03F
WILLMAR        FAIR      81  52  36 NW8       30.04S
$$
MNZ033>034-036-042>043-049>051-058-059-010000-
   Central Minnesota

CITY           SKY/WX    TMP DP  RH WIND       PRES   REMARKS
ST CLOUD       SUNNY     84  54  35 W6        30.00S
SAUK CENTRE    FAIR      79  56  43 W7        30.03S
PAYNESVILLE    SUNNY     78  50  36 W6        30.03S HAZE
AITKIN         SUNNY     81  61  50 NW3       29.98S
PINE RIVER     PTSUNNY   79  61  53 NW3       30.03S
BRAINERD       SUNNY     79  58  48 NW7       30.00S
STAPLES        SUNNY     79  55  44 NW9       30.01F
LONG PRAIRIE   FAIR      79  55  44 W6        30.03S
LITTLE FALLS   SUNNY     79  54  41 W8        30.01S
LITCHFIELD     SUNNY     81  55  41 NW5       30.03S
BUFFALO        SUNNY     80  54  40 W8        30.01F
MAPLE LAKE     SUNNY     80  58  46 NW5       30.02S
$$
MNZ037-044-045-052-053-010000-
   East Central Minnesota

CITY           SKY/WX    TMP DP  RH WIND       PRES   REMARKS
PRINCETON      SUNNY     82  57  42 W7        29.99F
MORA           SUNNY     77  59  53 W8        30.00F
CAMBRIDGE      SUNNY     84  63  48 W5        29.98S
RUSH CITY      MOSUNNY   79  59  50 W8        29.99S
MOOSE LAKE     SUNNY     79  61  53 NW3       29.96S
HINCKLEY       FAIR      79  61  53 W8        29.98S
CLOQUET        SUNNY     79  54  41 NW9       29.98S
MCGREGOR       SUNNY     79  59  50 NW8       29.99S
$$
MNZ071>073-080-081-089-090-097-098-010000-
   Southwest Minnesota

CITY           SKY/WX    TMP DP  RH WIND       PRES   REMARKS
MONTEVIDEO     MOSUNNY   82  57  42 N7        30.04S
GRANITE FALLS  SUNNY     79  56  45 W5        30.04S
CANBY          MOSUNNY   81  51  35 CALM      30.05S
MARSHALL       SUNNY     81  52  36 NW6       30.03S
REDWOOD FALLS  MOSUNNY   82  55  39 N5        30.02S
OLIVIA         MOSUNNY   79  55  44 NW7       30.02F
PIPESTONE      MOSUNNY   79  50  36 N3        30.05F
WINDOM         MOSUNNY   79  55  44 CALM      30.04S
WORTHINGTON    MOSUNNY   75  59  57 W8        30.07R
JACKSON        PTSUNNY   73  55  53 SW8       30.06R
TRACY          SUNNY     80  55  42 N6        30.04S
SLAYTON        MOSUNNY   78  55  43 CALM      30.06R
$$
MNZ065>067-074>077-082>085-091>093-010000-
   South Central Minnesota

CITY           SKY/WX    TMP DP  RH WIND       PRES   REMARKS
MANKATO        SUNNY     79  52  38 NW7       30.02F
NEW ULM        SUNNY     81  55  41 NW6       30.02S
ST JAMES       SUNNY     82  48  30 CALM      30.04S
FAIRMONT       PTSUNNY   81  54  39 CALM      30.04S
GLENCOE        MOSUNNY   81  51  35 W7        30.01S
FARIBAULT      SUNNY     82  48  30 W8        30.02F
OWATONNA       SUNNY     79  52  38 W8        30.03S
WASECA         MOSUNNY   77  50  38 W5        30.05S
ALBERT LEA     SUNNY     81  52  36 CALM      30.03F
$$
MNZ078>079-086>088-094>096-010000-
   Southeast Minnesota

CITY           SKY/WX    TMP DP  RH WIND       PRES   REMARKS
ROCHESTER      SUNNY     78  57  48 W5        30.04F
RED WING       SUNNY     82  54  36 W8        29.98S
STANTON        MOSUNNY   79  56  45 W7        30.00S
DODGE CENTER   MOSUNNY   79  54  41 NW10      30.03F
WINONA         SUNNY     79  55  44 NW7       30.00S
AUSTIN         MOSUNNY   79  54  41 W5        30.03F
PRESTON        SUNNY     76  61  59 NW7       30.04S
$$
ABBREVIATIONS USED IN REMARKS
   TC - TEMPERATURES IN CELSIUS
  WCI - WIND CHILL INDEX
   HX - HEAT INDEX
  VSB - VISIBILITY
$$



USA.gov is the U.S. government's official web portal to all federal, state and local government web resources and services.